| time (UTC) | temp F | wind direction | speed MPH | gust MPH | rain 1hr in | rain 24hr in | rain mn in | humidity % | barometer mb |
| 20260505041547 | 59 | 246 | 6.0 | 11.0 | 0.00 | 0.00 | 0.00 | 55 | 1009.7 |
| 20260505040010 | 59 | 229 | 3.0 | 9.0 | 0.00 | 0.00 | 0.00 | 54 | 1009.5 |
| 20260505034514 | 59 | 253 | 5.0 | 10.0 | 0.00 | 0.00 | 0.00 | 53 | 1009.5 |
| 20260505033057 | 60 | 242 | 4.0 | 12.0 | 0.00 | 0.00 | 0.00 | 52 | 1009.4 |
| 20260505031604 | 60 | 205 | 5.0 | 10.0 | 0.00 | 0.00 | 0.00 | 51 | 1009.4 |
| 20260505030052 | 60 | 213 | 4.0 | 9.0 | 0.00 | 0.00 | 0.00 | 51 | 1009.4 |
| 20260505024559 | 61 | 227 | 3.0 | 12.0 | 0.00 | 0.00 | 0.00 | 49 | 1009.3 |
| 20260505023047 | 61 | 194 | 3.0 | 8.0 | 0.00 | 0.00 | 0.00 | 49 | 1009.4 |
| 20260505021548 | 62 | 218 | 4.0 | 10.0 | 0.00 | 0.00 | 0.00 | 48 | 1009.4 |
| 20260505020044 | 62 | 213 | 5.0 | 11.0 | 0.00 | 0.00 | 0.00 | 47 | 1009.4 |
| 20260505014600 | 63 | 227 | 5.0 | 14.0 | 0.00 | 0.00 | 0.00 | 47 | 1009.2 |
| 20260505013020 | 63 | 186 | 4.0 | 13.0 | 0.00 | 0.00 | 0.00 | 46 | 1009.0 |
| 20260505011517 | 64 | 226 | 6.0 | 18.0 | 0.00 | 0.00 | 0.00 | 45 | 1008.6 |
| 20260505010056 | 64 | 264 | 5.0 | 18.0 | 0.00 | 0.00 | 0.00 | 44 | 1008.3 |
| 20260505004553 | 65 | 241 | 9.0 | 18.0 | 0.00 | 0.00 | 0.00 | 42 | 1007.9 |
| 20260505003038 | 66 | 214 | 8.0 | 16.0 | 0.00 | 0.00 | 0.00 | 41 | 1007.5 |
| 20260505001536 | 67 | 271 | 8.0 | 18.0 | 0.00 | 0.00 | 0.00 | 39 | 1007.0 |
| 20260505000044 | 69 | 206 | 2.0 | 8.0 | 0.00 | 0.00 | 0.00 | 34 | 1006.6 |
| 20260504234533 | 70 | 323 | 4.0 | 7.0 | 0.00 | 0.00 | 0.00 | 33 | 1006.4 |
| 20260504233025 | 70 | 230 | 3.0 | 8.0 | 0.00 | 0.00 | 0.00 | 32 | 1006.2 |
| 20260504231522 | 71 | 271 | 8.0 | 17.0 | 0.00 | 0.00 | 0.00 | 31 | 1005.9 |
| 20260504230021 | 72 | 224 | 6.0 | 15.0 | 0.00 | 0.00 | 0.00 | 31 | 1005.7 |
| 20260504224522 | 72 | 234 | 5.0 | 14.0 | 0.00 | 0.00 | 0.00 | 30 | 1005.6 |
| 20260504223003 | 72 | 254 | 7.0 | 17.0 | 0.00 | 0.00 | 0.00 | 29 | 1005.6 |
| 20260504221502 | 72 | 273 | 5.0 | 13.0 | 0.00 | 0.00 | 0.00 | 29 | 1005.5 |
| 20260504220045 | 72 | 261 | 6.0 | 13.0 | 0.00 | 0.00 | 0.00 | 29 | 1005.5 |
| 20260504214543 | 72 | 275 | 8.0 | 17.0 | 0.00 | 0.00 | 0.00 | 29 | 1005.5 |
| 20260504213037 | 72 | 273 | 7.0 | 18.0 | 0.00 | 0.00 | 0.00 | 29 | 1005.4 |
| 20260504211531 | 72 | 231 | 6.0 | 15.0 | 0.00 | 0.00 | 0.00 | 29 | 1005.5 |
| 20260504210006 | 73 | 271 | 6.0 | 16.0 | 0.00 | 0.00 | 0.00 | 28 | 1005.5 |
| 20260504204519 | 73 | 238 | 5.0 | 16.0 | 0.00 | 0.00 | 0.00 | 28 | 1005.5 |
| 20260504203003 | 73 | 236 | 7.0 | 16.0 | 0.00 | 0.00 | 0.00 | 27 | 1005.6 |
| 20260504201502 | 72 | 250 | 12.0 | 23.0 | 0.00 | 0.00 | 0.00 | 27 | 1005.6 |
| 20260504200125 | 72 | 239 | 11.0 | 21.0 | 0.00 | 0.00 | 0.00 | 27 | 1005.7 |
| 20260504194603 | 72 | 5 | 8.0 | 28.0 | 0.00 | 0.00 | 0.00 | 27 | 1005.6 |
| 20260504193057 | 71 | 319 | 8.0 | 22.0 | 0.00 | 0.00 | 0.00 | 27 | 1005.7 |
| 20260504191558 | 71 | 298 | 11.0 | 23.0 | 0.00 | 0.00 | 0.00 | 28 | 1005.7 |
| 20260504190053 | 71 | 259 | 12.0 | 30.0 | 0.00 | 0.00 | 0.00 | 28 | 1005.8 |
| 20260504184540 | 71 | 267 | 13.0 | 23.0 | 0.00 | 0.00 | 0.00 | 27 | 1006.0 |
| 20260504183038 | 70 | 325 | 11.0 | 26.0 | 0.00 | 0.00 | 0.00 | 27 | 1006.2 |
| 20260504181543 | 70 | 254 | 9.0 | 22.0 | 0.00 | 0.00 | 0.00 | 29 | 1006.2 |
| 20260504180037 | 69 | 257 | 7.0 | 23.0 | 0.00 | 0.00 | 0.00 | 29 | 1006.3 |
| 20260504174535 | 69 | 263 | 11.0 | 25.0 | 0.00 | 0.00 | 0.00 | 30 | 1006.3 |
| 20260504173036 | 68 | 224 | 11.0 | 26.0 | 0.00 | 0.00 | 0.00 | 30 | 1006.5 |
| 20260504171533 | 68 | 254 | 8.0 | 22.0 | 0.00 | 0.00 | 0.00 | 30 | 1006.6 |
| 20260504160108 | 66 | 291 | 13.0 | 26.0 | 0.00 | 0.00 | 0.00 | 32 | 1007.1 |
| 20260504081529 | 47 | 261 | 3.0 | 7.0 | 0.00 | 0.00 | 0.00 | 53 | 1010.0 |
| 20260504044521 | 43 | 248 | 3.0 | 6.0 | 0.00 | 0.00 | 0.00 | 59 | 1009.8 |
| 20260504043021 | 43 | 248 | 3.0 | 5.0 | 0.00 | 0.00 | 0.00 | 58 | 1009.7 |